Location: Nashville
(36.1660°N, 86.7840°W)
Time: 00:37:27
(UTC-05:00)

Vanguard 2 - Pass Details

Date: 29 June 2022
Orbit: 552 x 2934 km, 32.9° (Epoch: 10 August)

Event Time Altitude Azimuth Distance (km) Brightness Sun altitude
Rises 20:39:47 0° 253° (WSW) 4,627 12.1 -6.2°
Reaches altitude 10° 20:43:33 10° 250° (WSW) 3,253 11.2 -6.8°
Maximum altitude 20:50:52 57° 173° (S) 1,011 7.9 -8.0°
Drops below altitude 10° 20:55:34 10° 95° (E) 2,116 9.3 -8.8°
Enters shadow 20:56:17 - 93° (E) 2,385 9.6 -8.9°
